Simultaneous Nadir Overpasses (SNOs) Predictions

Prediction of SNOs between GOES-16 and LANDSAT-8 Satellite Orbit:

Table of predicted SNOs for the next 14.0 days since TLE Epoch: 8/23/2025
Index Date Time (GOES-16) GOES-16 Lat,Lon LANDSAT-8 Lat,Lon Distance(km) Time Diff (sec)
1 08/25/2025 17:03:58 0.03,-104.72 -0.27,-103.27 165.41 80
2 08/26/2025 05:28:02 -0.04,-104.68 -0.85,-108.45 428.90 80
3 08/28/2025 05:15:50 -0.04,-104.68 -0.23,-105.49 92.40 80
4 08/30/2025 05:00:58 -0.04,-104.68 0.38,-102.53 244.04 80
5 08/30/2025 17:24:54 0.06,-104.72 0.68,-107.69 337.81 80
6 09/01/2025 17:10:02 0.06,-104.71 0.05,-104.73 2.21 80
7 09/03/2025 16:57:50 0.06,-104.70 -0.59,-101.77 334.56 80
8 09/04/2025 05:21:53 -0.07,-104.67 -0.57,-106.95 259.57 80
9 09/06/2025 05:07:01 -0.07,-104.66 0.08,-103.99 76.64 80
